Tracking 32139 objects as of 14-Nov-2025
HD Live streaming from Space Station
objects crossing your sky now

GALAXY 10R

Track GALAXY 10R now!
GALAXY 10R is classified as:


NORAD ID: 26056
Int'l Code: 2000-002A
Perigee: 35,934.8 km
Apogee: 36,006.0 km
Inclination: 11.8 °
Period: 1,445.1 minutes
Semi major axis: 42341 km
RCS: 16.229 m2 (large)
Launch date: January 25, 2000
Source: United States (US)
Launch site: FRENCH GUIANA (FRGUI)

Digital and voice communications; 24 C-band< 24 Ku-band; North America.
Your satellite tracking list
Your tracking list is empty




NASA's NSSDC Master Catalog

Two Line Element Set (TLE):
1 26056U 00002A   25317.33323603 -.00000025  00000-0  00000+0 0  9999
2 26056  11.8310  32.8553 0008411 179.8211 147.7271  0.99644807 94171
Source of the keplerian elements: AFSPC